VIV1228 MMMX-MMTG

Flight info

Callsign VIV1228
Flight time N/A
Altitude 39000
Route ILETO3A ILETO UT109 VER UA552 TGZ
Aircraft A21N/M-SDE3FGHIRWY/LB1

Departure

Time N/A
Airport Mexico City Benito Juárez International Airport (MMMX)

Arrival

Time 2026-04-27 00:36
Airport Angel Albino Corzo International Airport (MMTG)
Time Latitude Longitude Altitude Speed Heading
2026-04-27 00:27 16.91193 -93.37268 9833 ft 286 kts 133°
2026-04-27 00:27 16.89766 -93.35833 9475 ft 283 kts 134°
2026-04-27 00:28 16.88339 -93.34405 9130 ft 281 kts 134°
2026-04-27 00:28 16.86950 -93.33009 8779 ft 280 kts 134°
2026-04-27 00:28 16.85557 -93.31607 8520 ft 273 kts 134°
2026-04-27 00:28 16.84195 -93.30237 8237 ft 269 kts 134°
2026-04-27 00:29 16.82846 -93.28881 7949 ft 264 kts 134°
2026-04-27 00:29 16.81534 -93.27561 7685 ft 260 kts 134°
2026-04-27 00:29 16.80347 -93.26171 7405 ft 254 kts 122°
2026-04-27 00:29 16.79543 -93.24538 7139 ft 248 kts 108°
2026-04-27 00:30 16.79043 -93.22836 6828 ft 246 kts 104°
2026-04-27 00:30 16.78601 -93.21132 6600 ft 240 kts 104°
2026-04-27 00:30 16.78174 -93.19478 6477 ft 228 kts 104°
2026-04-27 00:30 16.77756 -93.17889 6383 ft 227 kts 104°
2026-04-27 00:31 16.77313 -93.16317 6255 ft 227 kts 109°
2026-04-27 00:31 16.76351 -93.15017 6065 ft 231 kts 140°
2026-04-27 00:31 16.74979 -93.14113 5811 ft 230 kts 148°
2026-04-27 00:31 16.73618 -93.13294 5528 ft 221 kts 149°
2026-04-27 00:32 16.72327 -93.12520 5289 ft 206 kts 149°
2026-04-27 00:32 16.71082 -93.11762 5035 ft 204 kts 148°
2026-04-27 00:32 16.69861 -93.11009 4819 ft 204 kts 148°
2026-04-27 00:32 16.68673 -93.10272 4591 ft 191 kts 148°
2026-04-27 00:33 16.67553 -93.09576 4277 ft 183 kts 148°
2026-04-27 00:33 16.66483 -93.08908 3959 ft 174 kts 148°
2026-04-27 00:33 16.65473 -93.08291 3669 ft 163 kts 150°
2026-04-27 00:33 16.64505 -93.07725 3319 ft 157 kts 148°
2026-04-27 00:34 16.63572 -93.07118 2927 ft 154 kts 147°
2026-04-27 00:34 16.62677 -93.06538 2651 ft 150 kts 149°
2026-04-27 00:34 16.61773 -93.05989 2550 ft 151 kts 151°
2026-04-27 00:34 16.60848 -93.05456 2431 ft 152 kts 152°
2026-04-27 00:35 16.59917 -93.04915 2229 ft 152 kts 153°
2026-04-27 00:35 16.58980 -93.04375 1991 ft 153 kts 152°
2026-04-27 00:35 16.58062 -93.03804 1805 ft 153 kts 151°
2026-04-27 00:35 16.57152 -93.03228 1587 ft 152 kts 151°
2026-04-27 00:36 16.56345 -93.02719 1533 ft 73 kts 146°
2026-04-27 00:36 16.56163 -93.02567 1533 ft 28 kts 119°
2026-04-27 00:36 16.56129 -93.02507 1532 ft 6 kts 120°
2026-04-27 00:36 16.56102 -93.02459 1531 ft 9 kts 121°
2026-04-27 00:37 16.56063 -93.02389 1530 ft 12 kts 120°
2026-04-27 00:37 16.56035 -93.02334 1529 ft 9 kts 118°
2026-04-27 00:37 16.56024 -93.02258 1527 ft 12 kts 66°
2026-04-27 00:37 16.56066 -93.02183 1525 ft 9 kts 58°
2026-04-27 00:38 16.56078 -93.02165 1524 ft 4 kts 60°
2026-04-27 00:38 16.56081 -93.02146 1523 ft 0 kts 100°
2026-04-27 00:38 16.56076 -93.02128 1523 ft 4 kts 117°
2026-04-27 00:38 16.56073 -93.02124 1523 ft 1 kts 118°
2026-04-27 00:39 16.56062 -93.02106 1523 ft 4 kts 126°
2026-04-27 00:39 16.56057 -93.02099 1523 ft 0 kts 128°
2026-04-27 00:39 16.56055 -93.02097 1523 ft 0 kts 129°